AEHF-5 (USA 292)

Last updated on Wed Oct 15 2025 00:02:49 GMT+0000 (Coordinated Universal Time)

1 44481U 19051A 25287.29072493 -.00000274 00000+0 00000+0 0 9999 2 44481 1.7745 320.7444 0066219 5.2083 254.8985 1.00272141 22792
UTC large
Height (km)
Speed (km/s)
/
Latitude / Longitude
Inclination (degrees)
Orbital Period (minutes)
Azimuth
Elevation
Range (km)
Doppler Factor

Next 0 passes for location: London (51.5072 / 0.1276)

Sorry there are no passes over London.